Time,TemperatureF,DewpointF,PressureIn,WindDirection,WindDirectionDegrees,WindSpeedMPH,WindSpeedGustMPH,Humidity,HourlyPrecipIn,Conditions,Clouds,dailyrainin,SoftwareType,DateUTC
2013-08-10 00:03:00,70.5,48.2,28.02,WSW,248,0.0,0.0,45,0.00,,---,0.00,VWS V14.01,2013-08-10 07:03:00,
2013-08-10 00:08:00,70.3,48.0,28.02,WSW,248,0.0,0.0,45,0.00,,---,0.00,VWS V14.01,2013-08-10 07:08:00,
2013-08-10 00:13:00,70.3,48.6,28.02,SW,225,0.0,0.0,46,0.00,,---,0.00,VWS V14.01,2013-08-10 07:13:00,
2013-08-10 00:18:00,70.3,48.0,28.02,SW,225,0.0,0.0,45,0.00,,---,0.00,VWS V14.01,2013-08-10 07:18:00,
2013-08-10 00:23:00,70.7,48.3,28.02,NW,315,0.0,0.0,45,0.00,,---,0.00,VWS V14.01,2013-08-10 07:23:00,
2013-08-10 00:28:00,70.7,48.3,28.02,West,270,0.0,0.0,45,0.00,,---,0.00,VWS V14.01,2013-08-10 07:28:00,
2013-08-10 00:35:00,71.1,48.7,28.02,SW,225,0.0,0.0,45,0.00,,---,0.00,VWS V14.01,2013-08-10 07:35:00,
2013-08-10 00:40:00,71.4,49.0,28.02,SSE,158,0.0,0.0,45,0.00,,---,0.00,VWS V14.01,2013-08-10 07:40:00,
2013-08-10 00:45:00,71.4,48.4,28.05,East,90,0.0,0.0,44,0.00,,---,0.00,VWS V14.01,2013-08-10 07:45:00,
2013-08-10 00:50:00,72.7,49.5,28.05,NNW,338,0.0,0.0,44,0.00,,---,0.00,VWS V14.01,2013-08-10 07:50:00,
2013-08-10 00:55:00,71.2,53.2,28.05,WSW,248,0.0,6.3,53,0.00,,---,0.00,VWS V14.01,2013-08-10 07:55:00,
2013-08-10 01:00:00,70.0,54.5,28.08,WSW,248,1.6,1.6,58,0.00,,---,0.00,VWS V14.01,2013-08-10 08:00:00,
2013-08-10 01:05:00,68.5,56.7,28.08,WSW,248,2.5,2.7,66,0.00,,---,0.00,VWS V14.01,2013-08-10 08:05:00,
2013-08-10 01:10:00,68.0,56.7,28.08,SW,225,2.9,2.9,67,0.00,,---,0.00,VWS V14.01,2013-08-10 08:10:00,
2013-08-10 01:15:00,67.6,57.5,28.08,WSW,248,0.0,0.0,70,0.00,,---,0.00,VWS V14.01,2013-08-10 08:15:00,
2013-08-10 01:20:00,67.5,57.7,28.08,West,270,0.0,0.0,71,0.00,,---,0.00,VWS V14.01,2013-08-10 08:20:00,
2013-08-10 01:25:00,67.3,56.8,28.08,North,0,0.0,0.0,69,0.00,,---,0.00,VWS V14.01,2013-08-10 08:25:00,
2013-08-10 01:30:00,67.1,57.0,28.08,East,90,0.0,0.0,70,0.00,,---,0.00,VWS V14.01,2013-08-10 08:30:00,
2013-08-10 01:35:00,66.7,57.4,28.08,WNW,292,0.0,0.0,72,0.04,,---,0.04,VWS V14.01,2013-08-10 08:35:00,
2013-08-10 01:40:00,66.4,59.7,28.08,NNE,22,4.3,7.8,79,0.04,,---,0.04,VWS V14.01,2013-08-10 08:40:00,
2013-08-10 01:45:00,66.6,60.6,28.08,East,90,3.1,3.6,81,0.04,,---,0.04,VWS V14.01,2013-08-10 08:45:00,
2013-08-10 01:50:00,66.2,59.5,28.08,NW,315,0.0,0.0,79,0.04,,---,0.04,VWS V14.01,2013-08-10 08:50:00,
2013-08-10 01:55:00,66.0,59.0,28.08,NNE,22,0.0,0.9,78,0.04,,---,0.04,VWS V14.01,2013-08-10 08:55:00,
2013-08-10 02:00:00,65.7,59.7,28.08,West,270,0.0,0.0,81,0.04,,---,0.04,VWS V14.01,2013-08-10 09:00:00,
2013-08-10 02:05:00,65.5,59.2,28.08,West,270,0.0,0.0,80,0.04,,---,0.04,VWS V14.01,2013-08-10 09:05:00,
2013-08-10 02:10:00,65.3,59.0,28.08,WNW,292,0.0,0.0,80,0.08,,---,0.08,VWS V14.01,2013-08-10 09:10:00,
2013-08-10 02:15:00,65.5,62.2,28.08,ENE,68,2.7,5.6,89,0.08,,---,0.08,VWS V14.01,2013-08-10 09:15:00,
2013-08-10 02:20:00,65.3,62.0,28.08,NNE,22,0.0,3.8,89,0.08,,---,0.08,VWS V14.01,2013-08-10 09:20:00,
2013-08-10 02:25:00,65.1,60.8,28.08,WNW,292,0.0,0.0,86,0.08,,---,0.08,VWS V14.01,2013-08-10 09:25:00,
2013-08-10 02:30:00,64.8,59.8,28.05,WNW,292,0.0,0.0,84,0.08,,---,0.08,VWS V14.01,2013-08-10 09:30:00,
2013-08-10 02:35:00,64.6,60.3,28.05,West,270,0.0,0.0,86,0.08,,---,0.08,VWS V14.01,2013-08-10 09:35:00,
2013-08-10 02:41:00,64.6,60.3,28.05,West,270,0.0,0.0,86,0.04,,---,0.08,VWS V14.01,2013-08-10 09:41:00,
2013-08-10 02:46:00,64.4,60.1,28.05,SSW,202,0.0,0.0,86,0.04,,---,0.08,VWS V14.01,2013-08-10 09:46:00,
2013-08-10 02:51:00,64.6,61.6,28.05,South,180,0.0,0.0,90,0.04,,---,0.08,VWS V14.01,2013-08-10 09:51:00,
2013-08-10 02:56:00,64.4,61.7,28.05,WSW,248,0.0,0.0,91,0.04,,---,0.08,VWS V14.01,2013-08-10 09:56:00,
2013-08-10 03:01:00,64.4,61.4,28.08,WSW,248,0.0,0.0,90,0.04,,---,0.08,VWS V14.01,2013-08-10 10:01:00,
2013-08-10 03:06:00,64.6,61.3,28.08,WSW,248,0.0,0.0,89,0.04,,---,0.08,VWS V14.01,2013-08-10 10:06:00,
2013-08-10 03:11:00,64.6,61.3,28.08,West,270,0.0,0.0,89,0.00,,---,0.08,VWS V14.01,2013-08-10 10:11:00,
2013-08-10 03:16:00,64.6,61.3,28.08,SSW,202,0.0,0.0,89,0.00,,---,0.08,VWS V14.01,2013-08-10 10:16:00,
2013-08-10 03:21:00,64.4,61.1,28.08,SSW,202,0.0,0.0,89,0.00,,---,0.08,VWS V14.01,2013-08-10 10:21:00,
2013-08-10 03:38:00,64.6,61.9,28.14,West,270,0.0,0.0,91,0.17,,---,0.25,VWS V14.01,2013-08-10 10:38:00,
2013-08-10 03:43:00,64.6,61.9,28.17,WNW,292,0.0,0.0,91,0.17,,---,0.25,VWS V14.01,2013-08-10 10:43:00,
2013-08-10 03:48:00,64.6,61.9,28.17,ESE,112,1.6,1.6,91,0.21,,---,0.29,VWS V14.01,2013-08-10 10:48:00,
2013-08-10 03:53:00,64.6,61.9,28.17,West,270,0.0,0.0,91,0.21,,---,0.29,VWS V14.01,2013-08-10 10:53:00,
2013-08-10 03:58:00,64.6,61.9,28.17,West,270,0.0,0.0,91,0.21,,---,0.29,VWS V14.01,2013-08-10 10:58:00,
2013-08-10 04:03:00,64.6,62.2,28.14,North,0,0.0,0.0,92,0.21,,---,0.29,VWS V14.01,2013-08-10 11:03:00,
2013-08-10 04:08:00,64.6,62.2,28.14,North,0,0.0,0.0,92,0.21,,---,0.29,VWS V14.01,2013-08-10 11:08:00,
2013-08-10 04:13:00,64.4,62.0,28.14,WSW,248,0.0,0.0,92,0.21,,---,0.29,VWS V14.01,2013-08-10 11:13:00,
2013-08-10 04:18:00,64.4,62.3,28.14,NE,45,3.1,3.1,93,0.21,,---,0.29,VWS V14.01,2013-08-10 11:18:00,
2013-08-10 04:23:00,64.6,63.1,28.14,ESE,112,2.9,2.9,95,0.21,,---,0.29,VWS V14.01,2013-08-10 11:23:00,
2013-08-10 04:28:00,64.6,62.8,28.14,North,0,2.0,2.0,94,0.25,,---,0.33,VWS V14.01,2013-08-10 11:28:00,
2013-08-10 04:33:00,64.4,62.6,28.11,SSE,158,0.0,0.0,94,0.16,,---,0.33,VWS V14.01,2013-08-10 11:33:00,
2013-08-10 04:38:00,64.6,62.2,28.11,East,90,4.0,4.7,92,0.08,,---,0.33,VWS V14.01,2013-08-10 11:38:00,
2013-08-10 04:43:00,65.1,60.8,28.11,North,0,3.4,5.4,86,0.08,,---,0.33,VWS V14.01,2013-08-10 11:43:00,
2013-08-10 04:48:00,64.9,61.0,28.11,SSW,202,0.0,0.0,87,0.04,,---,0.33,VWS V14.01,2013-08-10 11:48:00,
2013-08-10 04:53:00,64.6,61.3,28.11,SSW,202,0.0,0.0,89,0.04,,---,0.33,VWS V14.01,2013-08-10 11:53:00,
2013-08-10 04:58:00,64.6,60.6,28.11,WSW,248,0.0,0.0,87,0.04,,---,0.33,VWS V14.01,2013-08-10 11:58:00,
2013-08-10 05:03:00,64.0,60.4,28.11,WSW,248,0.0,0.0,88,0.00,,---,0.33,VWS V14.01,2013-08-10 12:03:00,
2013-08-10 05:08:00,63.9,60.6,28.11,West,270,0.0,0.0,89,0.04,,---,0.33,VWS V14.01,2013-08-10 12:08:00,
2013-08-10 05:13:00,63.7,60.4,28.14,WNW,292,0.0,0.0,89,0.04,,---,0.33,VWS V14.01,2013-08-10 12:13:00,
2013-08-10 05:18:00,63.5,60.2,28.14,WNW,292,0.0,0.0,89,0.04,,---,0.33,VWS V14.01,2013-08-10 12:18:00,
2013-08-10 05:23:00,63.3,60.0,28.14,West,270,0.0,0.0,89,0.04,,---,0.33,VWS V14.01,2013-08-10 12:23:00,
2013-08-10 05:28:00,63.3,60.3,28.14,SSE,158,0.0,0.0,90,0.00,,---,0.33,VWS V14.01,2013-08-10 12:28:00,
2013-08-10 05:33:00,63.1,60.2,28.14,SW,225,0.0,0.0,90,0.00,,---,0.33,VWS V14.01,2013-08-10 12:33:00,
2013-08-10 05:38:00,63.1,60.8,28.14,West,270,0.0,0.0,92,0.00,,---,0.33,VWS V14.01,2013-08-10 12:38:00,
2013-08-10 05:43:00,63.0,60.3,28.14,WSW,248,0.0,0.0,91,0.00,,---,0.33,VWS V14.01,2013-08-10 12:43:00,
2013-08-10 05:48:00,62.8,60.1,28.14,WSW,248,0.0,0.0,91,0.00,,---,0.33,VWS V14.01,2013-08-10 12:48:00,
2013-08-10 05:53:00,62.6,59.9,28.14,WSW,248,0.0,0.0,91,0.00,,---,0.33,VWS V14.01,2013-08-10 12:53:00,
2013-08-10 05:58:00,62.6,59.9,28.17,WSW,248,0.0,0.0,91,0.00,,---,0.33,VWS V14.01,2013-08-10 12:58:00,
2013-08-10 06:04:00,62.4,59.8,28.17,WSW,248,0.0,0.0,91,0.00,,---,0.33,VWS V14.01,2013-08-10 13:04:00,
2013-08-10 06:09:00,62.4,60.1,28.17,WSW,248,0.0,0.0,92,0.00,,---,0.33,VWS V14.01,2013-08-10 13:09:00,
2013-08-10 06:14:00,62.4,60.4,28.17,West,270,0.0,0.0,93,0.00,,---,0.33,VWS V14.01,2013-08-10 13:14:00,
2013-08-10 06:19:00,62.4,60.4,28.17,West,270,0.0,0.0,93,0.00,,---,0.33,VWS V14.01,2013-08-10 13:19:00,
2013-08-10 06:24:00,62.4,60.1,28.17,West,270,0.0,0.0,92,0.00,,---,0.33,VWS V14.01,2013-08-10 13:24:00,
2013-08-10 06:29:00,62.2,59.9,28.17,West,270,0.0,0.0,92,0.00,,---,0.33,VWS V14.01,2013-08-10 13:29:00,
2013-08-10 06:34:00,62.2,59.9,28.17,WNW,292,0.0,0.0,92,0.00,,---,0.33,VWS V14.01,2013-08-10 13:34:00,
2013-08-10 06:39:00,62.6,60.2,28.17,ENE,68,0.0,0.0,92,0.00,,---,0.33,VWS V14.01,2013-08-10 13:39:00,
2013-08-10 06:44:00,62.6,60.2,28.17,North,0,0.0,0.0,92,0.00,,---,0.33,VWS V14.01,2013-08-10 13:44:00,
2013-08-10 06:49:00,62.8,60.4,28.17,North,0,0.0,0.0,92,0.00,,---,0.33,VWS V14.01,2013-08-10 13:49:00,
2013-08-10 06:54:00,62.8,60.4,28.17,WNW,292,0.0,0.0,92,0.00,,---,0.33,VWS V14.01,2013-08-10 13:54:00,
2013-08-10 06:59:00,63.0,60.6,28.17,WNW,292,0.0,0.0,92,0.00,,---,0.33,VWS V14.01,2013-08-10 13:59:00,
2013-08-10 07:04:00,63.0,60.6,28.17,NNW,338,0.0,0.0,92,0.00,,---,0.33,VWS V14.01,2013-08-10 14:04:00,
2013-08-10 07:09:00,63.0,60.6,28.17,NW,315,0.0,0.0,92,0.00,,---,0.33,VWS V14.01,2013-08-10 14:09:00,
2013-08-10 07:14:00,63.1,60.8,28.17,North,0,0.0,3.4,92,0.00,,---,0.33,VWS V14.01,2013-08-10 14:14:00,
2013-08-10 07:19:00,63.3,61.0,28.17,North,0,0.0,6.0,92,0.00,,---,0.33,VWS V14.01,2013-08-10 14:19:00,
2013-08-10 07:24:00,63.5,60.8,28.17,WNW,292,0.0,7.4,91,0.00,,---,0.33,VWS V14.01,2013-08-10 14:24:00,
2013-08-10 07:29:00,63.7,60.7,28.17,NE,45,2.5,4.3,90,0.00,,---,0.33,VWS V14.01,2013-08-10 14:29:00,
2013-08-10 07:34:00,63.7,60.4,28.17,ESE,112,0.0,0.0,89,0.00,,---,0.33,VWS V14.01,2013-08-10 14:34:00,
2013-08-10 07:39:00,63.7,60.7,28.17,West,270,0.0,0.0,90,0.00,,---,0.33,VWS V14.01,2013-08-10 14:39:00,
2013-08-10 07:44:00,64.0,61.0,28.17,West,270,0.0,0.0,90,0.00,,---,0.33,VWS V14.01,2013-08-10 14:44:00,
2013-08-10 07:49:00,64.6,61.6,28.17,East,90,0.0,0.0,90,0.00,,---,0.33,VWS V14.01,2013-08-10 14:49:00,
2013-08-10 07:54:00,64.9,61.6,28.17,NNE,22,1.6,3.1,89,0.00,,---,0.33,VWS V14.01,2013-08-10 14:54:00,
2013-08-10 07:59:00,65.7,62.0,28.17,East,90,2.5,2.5,88,0.00,,---,0.33,VWS V14.01,2013-08-10 14:59:00,
2013-08-10 08:04:00,66.0,61.4,28.17,East,90,0.0,0.0,85,0.00,,---,0.33,VWS V14.01,2013-08-10 15:04:00,
2013-08-10 08:09:00,66.2,60.2,28.17,NE,45,2.5,2.5,81,0.00,,---,0.33,VWS V14.01,2013-08-10 15:09:00,
2013-08-10 08:14:00,66.6,60.6,28.17,NE,45,0.0,0.0,81,0.00,,---,0.33,VWS V14.01,2013-08-10 15:14:00,
2013-08-10 08:19:00,66.9,61.2,28.17,NNE,22,0.0,0.0,82,0.00,,---,0.33,VWS V14.01,2013-08-10 15:19:00,
2013-08-10 08:24:00,67.3,61.6,28.17,SSE,158,0.0,0.0,82,0.00,,---,0.33,VWS V14.01,2013-08-10 15:24:00,
2013-08-10 08:29:00,67.5,61.8,28.17,NNE,22,0.0,0.0,82,0.00,,---,0.33,VWS V14.01,2013-08-10 15:29:00,
2013-08-10 08:34:00,67.6,62.3,28.17,SW,225,0.0,0.0,83,0.00,,---,0.33,VWS V14.01,2013-08-10 15:34:00,
2013-08-10 08:39:00,67.8,62.1,28.17,NE,45,0.0,0.0,82,0.00,,---,0.33,VWS V14.01,2013-08-10 15:39:00,
2013-08-10 08:44:00,68.4,62.3,28.17,ENE,68,0.0,0.0,81,0.00,,---,0.33,VWS V14.01,2013-08-10 15:44:00,
2013-08-10 08:49:00,69.1,62.3,28.17,ENE,68,0.0,0.0,79,0.00,,---,0.33,VWS V14.01,2013-08-10 15:49:00,
2013-08-10 08:54:00,69.4,61.9,28.17,NNE,22,0.0,0.0,77,0.00,,---,0.33,VWS V14.01,2013-08-10 15:54:00,
2013-08-10 08:59:00,70.3,61.3,28.17,ENE,68,0.0,0.9,73,0.00,,---,0.33,VWS V14.01,2013-08-10 15:59:00,
2013-08-10 09:04:00,71.4,61.5,28.17,East,90,0.0,0.0,71,0.00,,---,0.33,VWS V14.01,2013-08-10 16:04:00,
2013-08-10 09:09:00,72.1,62.6,28.17,SSE,158,0.0,0.0,72,0.00,,---,0.33,VWS V14.01,2013-08-10 16:09:00,
2013-08-10 09:14:00,73.9,63.5,28.17,SSE,158,0.0,0.0,70,0.00,,---,0.33,VWS V14.01,2013-08-10 16:14:00,
2013-08-10 09:19:00,75.4,62.8,28.17,West,270,0.0,0.0,65,0.00,,---,0.33,VWS V14.01,2013-08-10 16:19:00,
2013-08-10 09:24:00,76.3,62.8,28.17,SW,225,0.0,0.0,63,0.00,,---,0.33,VWS V14.01,2013-08-10 16:24:00,
2013-08-10 09:29:00,77.0,63.0,28.14,ESE,112,0.0,0.0,62,0.00,,---,0.33,VWS V14.01,2013-08-10 16:29:00,
2013-08-10 09:34:00,76.8,62.4,28.14,NE,45,0.0,0.0,61,0.00,,---,0.33,VWS V14.01,2013-08-10 16:34:00,
2013-08-10 09:39:00,76.5,59.6,28.14,NE,45,0.0,0.0,56,0.00,,---,0.33,VWS V14.01,2013-08-10 16:39:00,
2013-08-10 09:44:00,76.3,56.8,28.17,ENE,68,2.0,2.5,51,0.00,,---,0.33,VWS V14.01,2013-08-10 16:44:00,
2013-08-10 09:49:00,75.9,58.6,28.17,ENE,68,0.0,0.0,55,0.00,,---,0.33,VWS V14.01,2013-08-10 16:49:00,
2013-08-10 09:55:00,75.9,60.1,28.17,South,180,0.0,0.0,58,0.00,,---,0.33,VWS V14.01,2013-08-10 16:55:00,
2013-08-10 10:00:00,75.6,61.2,28.14,South,180,0.0,0.0,61,0.00,,---,0.33,VWS V14.01,2013-08-10 17:00:00,
2013-08-10 10:05:00,75.4,61.9,28.14,South,180,0.0,0.0,63,0.00,,---,0.33,VWS V14.01,2013-08-10 17:05:00,
2013-08-10 10:10:00,75.6,62.5,28.14,South,180,0.0,0.0,64,0.00,,---,0.33,VWS V14.01,2013-08-10 17:10:00,
2013-08-10 10:15:00,76.3,60.9,28.14,NNW,338,0.0,0.0,59,0.00,,---,0.33,VWS V14.01,2013-08-10 17:15:00,
2013-08-10 10:20:00,76.5,61.1,28.14,SSE,158,0.0,0.0,59,0.00,,---,0.33,VWS V14.01,2013-08-10 17:20:00,
2013-08-10 10:25:00,76.8,61.4,28.14,SSW,202,0.0,0.0,59,0.00,,---,0.33,VWS V14.01,2013-08-10 17:25:00,
2013-08-10 10:30:00,76.8,61.4,28.14,East,90,0.0,0.0,59,0.00,,---,0.33,VWS V14.01,2013-08-10 17:30:00,
2013-08-10 10:35:00,77.5,61.1,28.14,ESE,112,0.0,0.0,57,0.00,,---,0.33,VWS V14.01,2013-08-10 17:35:00,
2013-08-10 10:40:00,77.9,62.4,28.14,SSE,158,0.0,0.0,59,0.00,,---,0.33,VWS V14.01,2013-08-10 17:40:00,
2013-08-10 10:45:00,79.3,61.3,28.14,SSE,158,0.0,0.0,54,0.00,,---,0.33,VWS V14.01,2013-08-10 17:45:00,
2013-08-10 10:50:00,79.7,58.3,28.14,ENE,68,0.0,0.0,48,0.00,,---,0.33,VWS V14.01,2013-08-10 17:50:00,
2013-08-10 10:55:00,81.3,58.0,28.14,SE,135,0.0,2.7,45,0.00,,---,0.33,VWS V14.01,2013-08-10 17:55:00,
2013-08-10 11:00:00,83.1,59.0,28.14,East,90,0.0,0.0,44,0.00,,---,0.33,VWS V14.01,2013-08-10 18:00:00,
2013-08-10 11:05:00,84.2,60.0,28.14,SSE,158,0.0,0.0,44,0.00,,---,0.33,VWS V14.01,2013-08-10 18:05:00,
2013-08-10 11:10:00,84.9,57.9,28.14,ENE,68,0.0,0.0,40,0.00,,---,0.33,VWS V14.01,2013-08-10 18:10:00,
2013-08-10 11:15:00,85.8,57.3,28.14,ENE,68,2.5,2.7,38,0.00,,---,0.33,VWS V14.01,2013-08-10 18:15:00,
2013-08-10 11:20:00,86.4,53.9,28.14,ENE,68,1.3,2.5,33,0.00,,---,0.33,VWS V14.01,2013-08-10 18:20:00,
2013-08-10 11:25:00,86.5,54.0,28.14,ESE,112,0.0,2.5,33,0.00,,---,0.33,VWS V14.01,2013-08-10 18:25:00,
2013-08-10 11:30:00,88.3,58.8,28.14,WNW,292,0.9,0.9,37,0.00,,---,0.33,VWS V14.01,2013-08-10 18:30:00,
2013-08-10 11:35:00,89.2,54.7,28.14,West,270,1.1,3.6,31,0.00,,---,0.33,VWS V14.01,2013-08-10 18:35:00,
2013-08-10 11:40:00,90.5,56.6,28.14,NE,45,0.0,2.5,32,0.00,,---,0.33,VWS V14.01,2013-08-10 18:40:00,
2013-08-10 11:45:00,89.8,54.2,28.14,ENE,68,2.7,2.7,30,0.00,,---,0.33,VWS V14.01,2013-08-10 18:45:00,
2013-08-10 11:50:00,89.8,56.0,28.14,ENE,68,0.0,2.9,32,0.00,,---,0.33,VWS V14.01,2013-08-10 18:50:00,
2013-08-10 11:55:00,89.8,55.1,28.14,ENE,68,2.7,3.1,31,0.00,,---,0.33,VWS V14.01,2013-08-10 18:55:00,
2013-08-10 12:00:00,90.5,55.8,28.14,ENE,68,3.4,3.6,31,0.00,,---,0.33,VWS V14.01,2013-08-10 19:00:00,
2013-08-10 12:05:00,90.1,52.7,28.14,South,180,2.0,6.5,28,0.00,,---,0.33,VWS V14.01,2013-08-10 19:05:00,
2013-08-10 12:10:00,90.3,53.8,28.14,ENE,68,2.0,3.6,29,0.00,,---,0.33,VWS V14.01,2013-08-10 19:10:00,
2013-08-10 12:15:00,91.2,54.5,28.14,ESE,112,1.1,1.1,29,0.00,,---,0.33,VWS V14.01,2013-08-10 19:15:00,
2013-08-10 12:20:00,91.4,54.7,28.14,NE,45,2.7,3.1,29,0.00,,---,0.33,VWS V14.01,2013-08-10 19:20:00,
2013-08-10 12:25:00,91.2,53.6,28.14,NNE,22,3.4,3.4,28,0.00,,---,0.33,VWS V14.01,2013-08-10 19:25:00,
2013-08-10 12:30:00,91.0,52.5,28.14,ENE,68,2.2,3.8,27,0.00,,---,0.33,VWS V14.01,2013-08-10 19:30:00,
2013-08-10 12:35:00,91.0,54.4,28.14,ESE,112,2.5,2.5,29,0.00,,---,0.33,VWS V14.01,2013-08-10 19:35:00,
2013-08-10 12:40:00,91.0,52.5,28.14,NE,45,5.4,5.6,27,0.00,,---,0.33,VWS V14.01,2013-08-10 19:40:00,
2013-08-10 12:45:00,90.7,54.1,28.14,East,90,0.0,3.1,29,0.00,,---,0.33,VWS V14.01,2013-08-10 19:45:00,
2013-08-10 12:50:00,90.3,53.8,28.14,SE,135,1.6,2.5,29,0.00,,---,0.33,VWS V14.01,2013-08-10 19:50:00,
2013-08-10 12:55:00,90.0,54.4,28.14,NE,45,0.9,0.9,30,0.00,,---,0.33,VWS V14.01,2013-08-10 19:55:00,
2013-08-10 13:00:00,89.2,53.8,28.14,NNE,22,2.0,2.0,30,0.00,,---,0.33,VWS V14.01,2013-08-10 20:00:00,
2013-08-10 13:05:00,88.2,52.8,28.14,NE,45,3.6,4.0,30,0.00,,---,0.33,VWS V14.01,2013-08-10 20:05:00,
2013-08-10 13:10:00,87.3,52.1,28.14,South,180,1.3,3.6,30,0.00,,---,0.33,VWS V14.01,2013-08-10 20:10:00,
2013-08-10 13:15:00,87.4,54.0,28.14,East,90,0.0,0.0,32,0.00,,---,0.33,VWS V14.01,2013-08-10 20:15:00,
2013-08-10 13:20:00,87.1,54.5,28.14,ENE,68,4.0,4.0,33,0.00,,---,0.33,VWS V14.01,2013-08-10 20:20:00,
2013-08-10 13:25:00,86.9,53.5,28.14,SW,225,0.0,1.1,32,0.00,,---,0.33,VWS V14.01,2013-08-10 20:25:00,
2013-08-10 13:30:00,86.9,53.5,28.14,West,270,0.0,3.1,32,0.00,,---,0.33,VWS V14.01,2013-08-10 20:30:00,
2013-08-10 13:36:00,87.4,53.1,28.14,NNE,22,4.3,4.7,31,0.00,,---,0.33,VWS V14.01,2013-08-10 20:36:00,
2013-08-10 13:41:00,87.4,54.0,28.14,NE,45,2.2,2.2,32,0.00,,---,0.33,VWS V14.01,2013-08-10 20:41:00,
2013-08-10 13:46:00,88.7,55.1,28.14,East,90,1.1,3.1,32,0.00,,---,0.33,VWS V14.01,2013-08-10 20:46:00,
2013-08-10 13:51:00,90.3,56.5,28.14,NE,45,1.6,1.6,32,0.00,,---,0.33,VWS V14.01,2013-08-10 20:51:00,
2013-08-10 13:56:00,90.5,54.9,28.14,East,90,5.6,5.6,30,0.00,,---,0.33,VWS V14.01,2013-08-10 20:56:00,
2013-08-10 14:01:00,90.3,54.7,28.11,NW,315,0.0,1.1,30,0.00,,---,0.33,VWS V14.01,2013-08-10 21:01:00,
2013-08-10 14:06:00,89.8,53.3,28.11,ESE,112,3.8,3.8,29,0.00,,---,0.33,VWS V14.01,2013-08-10 21:06:00,
2013-08-10 14:11:00,89.2,53.8,28.11,ESE,112,1.1,3.6,30,0.00,,---,0.33,VWS V14.01,2013-08-10 21:11:00,
2013-08-10 14:16:00,88.9,53.5,28.11,ENE,68,3.1,3.6,30,0.00,,---,0.33,VWS V14.01,2013-08-10 21:16:00,
2013-08-10 14:21:00,88.7,53.3,28.11,NNE,22,0.0,0.0,30,0.00,,---,0.33,VWS V14.01,2013-08-10 21:21:00,
2013-08-10 14:26:00,88.3,53.0,28.11,SE,135,3.1,3.1,30,0.00,,---,0.33,VWS V14.01,2013-08-10 21:26:00,
2013-08-10 14:31:00,88.7,54.2,28.11,ENE,68,0.0,1.3,31,0.00,,---,0.33,VWS V14.01,2013-08-10 21:31:00,
2013-08-10 14:36:00,89.2,55.5,28.11,ENE,68,0.9,2.5,32,0.00,,---,0.33,VWS V14.01,2013-08-10 21:36:00,
2013-08-10 14:41:00,90.1,53.6,28.11,NE,45,1.3,2.2,29,0.00,,---,0.33,VWS V14.01,2013-08-10 21:41:00,
2013-08-10 14:46:00,90.5,54.9,28.11,East,90,0.0,0.9,30,0.00,,---,0.33,VWS V14.01,2013-08-10 21:46:00,
2013-08-10 14:51:00,91.8,55.0,28.11,East,90,2.7,2.7,29,0.00,,---,0.33,VWS V14.01,2013-08-10 21:51:00,
2013-08-10 14:56:00,92.8,55.9,28.11,ENE,68,1.1,3.6,29,0.00,,---,0.33,VWS V14.01,2013-08-10 21:56:00,
2013-08-10 15:01:00,93.2,54.3,28.11,ENE,68,1.1,3.1,27,0.00,,---,0.33,VWS V14.01,2013-08-10 22:01:00,
2013-08-10 15:06:00,94.3,55.2,28.11,ESE,112,3.6,3.6,27,0.00,,---,0.33,VWS V14.01,2013-08-10 22:06:00,
2013-08-10 15:11:00,94.5,55.3,28.11,West,270,0.0,0.0,27,0.00,,---,0.33,VWS V14.01,2013-08-10 22:11:00,
2013-08-10 15:16:00,95.5,55.2,28.11,ENE,68,0.0,1.1,26,0.00,,---,0.33,VWS V14.01,2013-08-10 22:16:00,
2013-08-10 15:21:00,95.4,51.7,28.11,ENE,68,0.0,0.0,23,0.00,,---,0.33,VWS V14.01,2013-08-10 22:21:00,
2013-08-10 15:26:00,95.9,52.2,28.11,NW,315,0.0,1.6,23,0.00,,---,0.33,VWS V14.01,2013-08-10 22:26:00,
2013-08-10 15:31:00,96.1,53.5,28.08,WSW,248,0.0,0.0,24,0.00,,---,0.33,VWS V14.01,2013-08-10 22:31:00,
2013-08-10 15:36:00,96.3,53.6,28.08,WSW,248,0.0,0.0,24,0.00,,---,0.33,VWS V14.01,2013-08-10 22:36:00,
2013-08-10 15:41:00,97.2,54.4,28.08,SE,135,0.0,0.9,24,0.00,,---,0.33,VWS V14.01,2013-08-10 22:41:00,
2013-08-10 15:46:00,95.9,51.0,28.08,WNW,292,3.8,3.8,22,0.00,,---,0.33,VWS V14.01,2013-08-10 22:46:00,
2013-08-10 15:51:00,96.4,52.6,28.08,East,90,2.9,2.9,23,0.00,,---,0.33,VWS V14.01,2013-08-10 22:51:00,
2013-08-10 15:56:00,95.9,52.2,28.08,WSW,248,0.0,1.1,23,0.00,,---,0.33,VWS V14.01,2013-08-10 22:56:00,
2013-08-10 16:01:00,95.5,50.7,28.08,West,270,2.2,2.2,22,0.00,,---,0.33,VWS V14.01,2013-08-10 23:01:00,
2013-08-10 16:06:00,93.7,51.5,28.08,WSW,248,2.5,2.5,24,0.00,,---,0.33,VWS V14.01,2013-08-10 23:06:00,
2013-08-10 16:11:00,92.1,52.3,28.08,West,270,0.0,0.0,26,0.00,,---,0.33,VWS V14.01,2013-08-10 23:11:00,
2013-08-10 16:16:00,90.7,53.1,28.08,NE,45,0.0,0.0,28,0.00,,---,0.33,VWS V14.01,2013-08-10 23:16:00,
2013-08-10 16:21:00,89.6,54.1,28.08,SW,225,0.9,1.1,30,0.00,,---,0.33,VWS V14.01,2013-08-10 23:21:00,
2013-08-10 16:26:00,88.2,53.7,28.08,WSW,248,0.9,0.9,31,0.00,,---,0.33,VWS V14.01,2013-08-10 23:26:00,
2013-08-10 16:31:00,87.1,53.7,28.08,WSW,248,0.0,0.0,32,0.00,,---,0.33,VWS V14.01,2013-08-10 23:31:00,
2013-08-10 16:36:00,84.7,54.1,28.08,WSW,248,0.0,0.0,35,0.00,,---,0.33,VWS V14.01,2013-08-10 23:36:00,
2013-08-10 16:41:00,83.5,57.3,28.08,WSW,248,0.0,0.0,41,0.00,,---,0.33,VWS V14.01,2013-08-10 23:41:00,
2013-08-10 16:46:00,81.9,55.2,28.05,West,270,0.0,0.0,40,0.00,,---,0.33,VWS V14.01,2013-08-10 23:46:00,
2013-08-10 16:51:00,80.6,54.8,28.05,West,270,0.0,0.0,41,0.00,,---,0.33,VWS V14.01,2013-08-10 23:51:00,
2013-08-10 16:56:00,79.9,55.4,28.05,WSW,248,0.0,1.3,43,0.00,,---,0.33,VWS V14.01,2013-08-10 23:56:00,
2013-08-10 17:01:00,79.0,55.8,28.05,WSW,248,0.0,0.0,45,0.00,,---,0.33,VWS V14.01,2013-08-11 00:01:00,
2013-08-10 17:07:00,78.4,56.6,28.05,WSW,248,0.0,0.0,47,0.00,,---,0.33,VWS V14.01,2013-08-11 00:07:00,
2013-08-10 17:12:00,78.1,56.8,28.05,WSW,248,0.0,0.0,48,0.00,,---,0.33,VWS V14.01,2013-08-11 00:12:00,
2013-08-10 17:17:00,77.7,57.1,28.05,WSW,248,0.0,0.0,49,0.00,,---,0.33,VWS V14.01,2013-08-11 00:17:00,
2013-08-10 17:22:00,77.4,58.4,28.05,West,270,0.0,0.0,52,0.00,,---,0.33,VWS V14.01,2013-08-11 00:22:00,
2013-08-10 17:27:00,77.0,57.0,28.05,WSW,248,0.0,0.0,50,0.00,,---,0.33,VWS V14.01,2013-08-11 00:27:00,
2013-08-10 17:32:00,76.6,58.2,28.05,WSW,248,0.0,0.0,53,0.00,,---,0.33,VWS V14.01,2013-08-11 00:32:00,
2013-08-10 17:37:00,76.3,57.9,28.05,West,270,0.0,0.0,53,0.00,,---,0.33,VWS V14.01,2013-08-11 00:37:00,
2013-08-10 17:42:00,76.1,58.3,28.05,WSW,248,0.0,0.0,54,0.00,,---,0.33,VWS V14.01,2013-08-11 00:42:00,
2013-08-10 17:47:00,75.9,58.6,28.05,WSW,248,0.0,0.0,55,0.00,,---,0.33,VWS V14.01,2013-08-11 00:47:00,
2013-08-10 17:52:00,75.7,59.0,28.05,WSW,248,0.0,0.0,56,0.00,,---,0.33,VWS V14.01,2013-08-11 00:52:00,
2013-08-10 17:57:00,75.6,58.8,28.05,WSW,248,0.0,0.0,56,0.00,,---,0.33,VWS V14.01,2013-08-11 00:57:00,
2013-08-10 18:02:00,75.4,60.1,28.05,WSW,248,0.0,0.0,59,0.00,,---,0.33,VWS V14.01,2013-08-11 01:02:00,
2013-08-10 18:07:00,75.2,59.4,28.05,West,270,0.0,0.0,58,0.00,,---,0.33,VWS V14.01,2013-08-11 01:07:00,
2013-08-10 18:12:00,75.2,59.4,28.05,West,270,0.0,0.0,58,0.00,,---,0.33,VWS V14.01,2013-08-11 01:12:00,
2013-08-10 18:17:00,75.0,60.2,28.05,West,270,0.0,0.0,60,0.00,,---,0.33,VWS V14.01,2013-08-11 01:17:00,
2013-08-10 18:22:00,75.0,60.2,28.05,West,270,0.0,0.0,60,0.00,,---,0.33,VWS V14.01,2013-08-11 01:22:00,
2013-08-10 18:27:00,75.0,60.7,28.05,West,270,0.0,0.0,61,0.00,,---,0.33,VWS V14.01,2013-08-11 01:27:00,
2013-08-10 18:32:00,75.4,60.5,28.05,West,270,0.0,0.0,60,0.00,,---,0.33,VWS V14.01,2013-08-11 01:32:00,
2013-08-10 18:37:00,75.7,60.9,28.05,West,270,0.0,0.0,60,0.00,,---,0.33,VWS V14.01,2013-08-11 01:37:00,
2013-08-10 18:42:00,75.9,61.0,28.05,West,270,0.0,0.0,60,0.00,,---,0.33,VWS V14.01,2013-08-11 01:42:00,
2013-08-10 18:47:00,76.1,61.7,28.05,West,270,0.0,0.0,61,0.00,,---,0.33,VWS V14.01,2013-08-11 01:47:00,
2013-08-10 18:52:00,76.1,61.2,28.05,West,270,0.0,0.0,60,0.00,,---,0.33,VWS V14.01,2013-08-11 01:52:00,
2013-08-10 18:57:00,76.1,61.2,28.05,West,270,0.0,0.0,60,0.00,,---,0.33,VWS V14.01,2013-08-11 01:57:00,
2013-08-10 19:02:00,75.9,61.5,28.05,WSW,248,0.0,0.0,61,0.00,,---,0.33,VWS V14.01,2013-08-11 02:02:00,
2013-08-10 19:07:00,75.9,60.6,28.05,NW,315,0.0,0.9,59,0.00,,---,0.33,VWS V14.01,2013-08-11 02:07:00,
2013-08-10 19:12:00,75.9,60.6,28.05,WNW,292,0.0,0.0,59,0.00,,---,0.33,VWS V14.01,2013-08-11 02:12:00,
2013-08-10 19:17:00,75.6,60.7,28.08,WNW,292,0.0,0.0,60,0.00,,---,0.33,VWS V14.01,2013-08-11 02:17:00,
2013-08-10 19:22:00,75.2,60.8,28.08,WNW,292,0.0,0.0,61,0.00,,---,0.33,VWS V14.01,2013-08-11 02:22:00,
2013-08-10 19:27:00,74.8,61.0,28.08,WNW,292,0.0,0.0,62,0.00,,---,0.33,VWS V14.01,2013-08-11 02:27:00,
2013-08-10 19:32:00,74.3,60.5,28.08,WNW,292,0.0,0.0,62,0.00,,---,0.33,VWS V14.01,2013-08-11 02:32:00,
2013-08-10 19:37:00,73.8,60.4,28.08,WNW,292,0.0,0.0,63,0.00,,---,0.33,VWS V14.01,2013-08-11 02:37:00,
2013-08-10 19:42:00,73.4,60.0,28.08,WNW,292,0.0,0.0,63,0.00,,---,0.33,VWS V14.01,2013-08-11 02:42:00,
2013-08-10 19:47:00,73.0,60.6,28.08,WNW,292,0.0,0.0,65,0.00,,---,0.33,VWS V14.01,2013-08-11 02:47:00,
2013-08-10 19:52:00,72.9,60.0,28.08,WNW,292,0.0,0.0,64,0.00,,---,0.33,VWS V14.01,2013-08-11 02:52:00,
2013-08-10 19:57:00,72.3,59.9,28.08,West,270,0.0,0.0,65,0.00,,---,0.33,VWS V14.01,2013-08-11 02:57:00,
2013-08-10 20:02:00,72.0,59.6,28.08,West,270,0.0,0.0,65,0.00,,---,0.33,VWS V14.01,2013-08-11 03:02:00,
2013-08-10 20:07:00,71.8,59.8,28.08,West,270,0.0,0.0,66,0.00,,---,0.33,VWS V14.01,2013-08-11 03:07:00,
2013-08-10 20:12:00,71.4,59.5,28.08,West,270,0.0,0.0,66,0.00,,---,0.33,VWS V14.01,2013-08-11 03:12:00,
2013-08-10 20:17:00,71.2,59.7,28.08,West,270,0.0,0.0,67,0.00,,---,0.33,VWS V14.01,2013-08-11 03:17:00,
2013-08-10 20:22:00,71.1,60.0,28.08,West,270,0.0,0.0,68,0.00,,---,0.33,VWS V14.01,2013-08-11 03:22:00,
2013-08-10 20:27:00,70.7,60.0,28.08,West,270,0.0,0.0,69,0.00,,---,0.33,VWS V14.01,2013-08-11 03:27:00,
2013-08-10 20:32:00,70.5,59.5,28.08,West,270,0.0,0.0,68,0.00,,---,0.33,VWS V14.01,2013-08-11 03:32:00,
2013-08-10 20:37:00,70.3,59.7,28.08,West,270,0.0,0.0,69,0.00,,---,0.33,VWS V14.01,2013-08-11 03:37:00,
2013-08-10 20:42:00,70.2,59.5,28.08,West,270,0.0,0.0,69,0.00,,---,0.33,VWS V14.01,2013-08-11 03:42:00,
2013-08-10 20:48:00,70.0,59.3,28.11,ESE,112,0.0,0.0,69,0.00,,---,0.33,VWS V14.01,2013-08-11 03:48:00,
2013-08-10 20:53:00,69.8,59.6,28.11,SSW,202,0.0,0.0,70,0.00,,---,0.33,VWS V14.01,2013-08-11 03:53:00,
2013-08-10 20:58:00,69.6,59.8,28.11,SSW,202,0.0,0.0,71,0.00,,---,0.33,VWS V14.01,2013-08-11 03:58:00,
2013-08-10 21:01:00,69.4,59.6,28.11,South,180,0.0,0.0,71,0.00,,---,0.33,VWS V14.01,2013-08-11 04:01:00,
2013-08-10 21:06:00,69.3,59.9,28.11,South,180,0.0,0.0,72,0.00,,---,0.33,VWS V14.01,2013-08-11 04:06:00,
2013-08-10 21:11:00,68.9,59.5,28.11,NNW,338,0.0,0.0,72,0.00,,---,0.33,VWS V14.01,2013-08-11 04:11:00,
2013-08-10 21:16:00,68.7,59.3,28.08,NNW,338,0.0,0.0,72,0.00,,---,0.33,VWS V14.01,2013-08-11 04:16:00,
2013-08-10 21:21:00,68.5,59.2,28.08,NNW,338,0.0,0.0,72,0.00,,---,0.33,VWS V14.01,2013-08-11 04:21:00,
2013-08-10 21:26:00,68.4,59.0,28.08,NNW,338,0.0,0.0,72,0.00,,---,0.33,VWS V14.01,2013-08-11 04:26:00,
2013-08-10 21:31:00,68.2,58.8,28.08,North,0,0.0,0.0,72,0.00,,---,0.33,VWS V14.01,2013-08-11 04:31:00,
2013-08-10 21:36:00,68.0,58.3,28.08,North,0,0.0,0.0,71,0.00,,---,0.33,VWS V14.01,2013-08-11 04:36:00,
2013-08-10 21:41:00,68.0,58.3,28.08,North,0,0.0,0.0,71,0.00,,---,0.33,VWS V14.01,2013-08-11 04:41:00,
2013-08-10 21:47:00,68.2,58.4,28.08,SSW,202,0.0,0.0,71,0.00,,---,0.33,VWS V14.01,2013-08-11 04:47:00,
2013-08-10 21:52:00,68.0,57.9,28.08,WSW,248,0.0,0.0,70,0.00,,---,0.33,VWS V14.01,2013-08-11 04:52:00,
2013-08-10 21:57:00,68.0,57.9,28.08,WNW,292,0.0,0.0,70,0.00,,---,0.33,VWS V14.01,2013-08-11 04:57:00,
2013-08-10 22:02:00,68.2,58.0,28.08,WNW,292,0.0,0.0,70,0.00,,---,0.33,VWS V14.01,2013-08-11 05:02:00,
2013-08-10 22:07:00,68.4,58.2,28.08,WNW,292,0.0,0.0,70,0.00,,---,0.33,VWS V14.01,2013-08-11 05:07:00,
2013-08-10 22:12:00,68.4,57.8,28.08,WNW,292,0.0,0.0,69,0.00,,---,0.33,VWS V14.01,2013-08-11 05:12:00,
2013-08-10 22:17:00,68.4,57.8,28.08,WNW,292,0.0,0.0,69,0.00,,---,0.33,VWS V14.01,2013-08-11 05:17:00,
2013-08-10 22:22:00,68.5,57.6,28.08,NNE,22,0.0,0.9,68,0.00,,---,0.33,VWS V14.01,2013-08-11 05:22:00,
2013-08-10 22:27:00,68.5,57.6,28.08,NNW,338,0.0,1.3,68,0.00,,---,0.33,VWS V14.01,2013-08-11 05:27:00,
2013-08-10 22:32:00,68.7,57.7,28.08,North,0,0.0,0.0,68,0.00,,---,0.33,VWS V14.01,2013-08-11 05:32:00,
2013-08-10 22:37:00,68.7,57.7,28.08,NNW,338,0.0,0.0,68,0.00,,---,0.33,VWS V14.01,2013-08-11 05:37:00,
2013-08-10 22:42:00,69.1,57.7,28.08,WNW,292,0.0,0.0,67,0.00,,---,0.33,VWS V14.01,2013-08-11 05:42:00,
2013-08-10 22:47:00,69.1,57.3,28.08,West,270,0.0,0.0,66,0.00,,---,0.33,VWS V14.01,2013-08-11 05:47:00,
2013-08-10 22:52:00,69.1,57.3,28.08,WNW,292,0.0,1.1,66,0.00,,---,0.33,VWS V14.01,2013-08-11 05:52:00,
2013-08-10 22:57:00,69.1,57.3,28.08,WNW,292,0.0,0.0,66,0.00,,---,0.33,VWS V14.01,2013-08-11 05:57:00,
2013-08-10 23:02:00,68.9,57.1,28.08,East,90,1.1,3.8,66,0.00,,---,0.33,VWS V14.01,2013-08-11 06:02:00,
2013-08-10 23:07:00,69.3,56.6,28.08,NW,315,0.0,0.0,64,0.00,,---,0.33,VWS V14.01,2013-08-11 06:07:00,
2013-08-10 23:13:00,69.1,56.4,28.08,NW,315,0.0,0.0,64,0.00,,---,0.33,VWS V14.01,2013-08-11 06:13:00,
2013-08-10 23:18:00,69.1,56.4,28.08,WNW,292,0.0,0.0,64,0.00,,---,0.33,VWS V14.01,2013-08-11 06:18:00,
2013-08-10 23:23:00,69.3,56.1,28.08,NNE,22,1.1,1.1,63,0.00,,---,0.33,VWS V14.01,2013-08-11 06:23:00,
2013-08-10 23:28:00,70.2,54.2,28.08,WNW,292,0.0,3.8,57,0.00,,---,0.33,VWS V14.01,2013-08-11 06:28:00,
2013-08-10 23:33:00,70.9,52.4,28.08,ENE,68,4.9,7.4,52,0.00,,---,0.33,VWS V14.01,2013-08-11 06:33:00,
2013-08-10 23:38:00,69.4,58.0,28.08,SSW,202,0.0,1.3,67,0.00,,---,0.33,VWS V14.01,2013-08-11 06:38:00,
2013-08-10 23:43:00,67.8,59.2,28.14,SW,225,0.0,0.0,74,0.00,,---,0.33,VWS V14.01,2013-08-11 06:43:00,
2013-08-10 23:48:00,66.7,60.0,28.14,SSW,202,0.0,0.0,79,0.00,,---,0.33,VWS V14.01,2013-08-11 06:48:00,
2013-08-10 23:53:00,66.4,59.3,28.14,WSW,248,1.3,2.5,78,0.05,,---,0.38,VWS V14.01,2013-08-11 06:53:00,
2013-08-10 23:58:00,65.8,59.5,28.20,SW,225,2.0,3.8,80,0.05,,---,0.38,VWS V14.01,2013-08-11 06:58:00,